Weather History for YPXM - November, 2013

Change the Weather History Date:

Monday, November 18, 2013

  Actual Average Record
Temperature  
Mean Temperature 77 °F -  
Max Temperature 82 °F 78 °F 84 °F (2012)
Min Temperature 72 °F 70 °F 32 °F (2006)
Cooling Degree Days 12    
Growing Degree Days 27 (Base 50)    
Moisture  
Dew Point 73 °F    
Average Humidity 87    
Maximum Humidity 100    
Minimum Humidity 74    
Precipitation  
Precipitation 0.00 in - - ()
Sea Level Pressure  
Sea Level Pressure 29.82 in    
Wind  
Wind Speed 7 mph ()    
Max Wind Speed 10 mph    
Max Gust Speed -    
Visibility 6.0 miles    
Events      
Averages and records for this station are not official NWS values.
T = Trace of Precipitation, MM = Missing Value Source: Averaged Metar Reports

Daily Weather History Graph

Daily Weather History Graph

Search for Another Location

Airport or City:

Trip Planner

Search our weather history database for the weather conditions in past years. The results will help you decide how hot, cold, wet, or windy it might be!

Date:

Astronomy

Nov. 18, 2013 Rise Set
Actual Time 5:24 AM CXT 6:00 PM CXT
Civil Twilight 5:01 AM CXT 6:23 PM CXT
Nautical Twilight 4:35 AM CXT 6:49 PM CXT
Astronomical Twilight 4:08 AM CXT 7:16 PM CXT
Moon 6:39 PM CXT (11/18) 5:44 AM CXT (11/18)
Length of Visible Light 13h 21m
Length of Day
12h 36m
Full, 100% of the Moon is Illuminated
Nov 18
Full
Nov 26
Last Quarter
Dec 3
New
Dec 9
First Quarter
Dec 17
Full

Hourly Weather History & Observations

Time (CXT) Temp. Heat Index Dew Point Humidity Pressure Visibility Wind Dir Wind Speed Gust Speed Precip Events Conditions
12:00 AM 74 °F - 73 °F 97% 29.81 in - NNE 9.2 mph - -   Overcast
12:00 AM 73.4 °F - 73.4 °F 100% 29.83 in - NNE 9.2 mph - N/A   Overcast
1:00 AM 74 °F - 73 °F 96% 29.80 in - North 8.1 mph - -  
1:00 AM 73.4 °F - 73.4 °F 100% 29.83 in - North 8.1 mph - N/A   Overcast
2:00 AM 73.4 °F - 73.4 °F 100% 29.83 in 6.2 mi North 4.6 mph - N/A   Drizzle
2:24 AM 73.4 °F - 73.4 °F 100% 29.80 in 6.2 mi North 1.2 mph - N/A   Scattered Clouds
3:00 AM 73 °F - 72 °F 97% 29.78 in 4 mi North 4.6 mph - -   Overcast
3:00 AM 73.4 °F - 71.6 °F 94% 29.80 in 3.7 mi North 4.6 mph - N/A   Mostly Cloudy
3:01 AM 73.4 °F - 73.4 °F 100% 29.80 in - North 4.6 mph - N/A   Mostly Cloudy
3:10 AM 73.4 °F - 73.4 °F 100% 29.80 in - North 5.8 mph - N/A   Mostly Cloudy
3:14 AM 73.4 °F - 73.4 °F 100% 29.80 in - North 5.8 mph - N/A   Mostly Cloudy
4:00 AM 73 °F - 72 °F 97% 29.77 in - North 4.6 mph - -  
4:00 AM 73.4 °F - 71.6 °F 94% 29.80 in - North 4.6 mph - N/A   Scattered Clouds
4:27 AM 73.4 °F - 73.4 °F 100% 29.80 in - NE 3.5 mph - N/A   Mostly Cloudy
5:00 AM 73.4 °F - 73.4 °F 100% 29.80 in - NNE 4.6 mph - N/A   Mostly Cloudy
6:00 AM 74 °F - 73 °F 95% 29.80 in - NNE 4.6 mph - -  
6:00 AM 73.4 °F - 73.4 °F 100% 29.83 in - NNE 4.6 mph - N/A   Mostly Cloudy
7:00 AM 74 °F - 73 °F 97% 29.81 in - North 5.8 mph - -  
7:00 AM 75.2 °F - 73.4 °F 94% 29.86 in 6.2 mi North 5.8 mph - N/A   Mostly Cloudy
7:24 AM 75.2 °F - 71.6 °F 89% 29.86 in 6.2 mi NNE 8.1 mph - N/A   Scattered Clouds
8:00 AM 77.0 °F - 71.6 °F 83% 29.86 in 6.2 mi NE 8.1 mph - N/A   Unknown
9:00 AM 79 °F - 72 °F 75% 29.84 in - North 9.2 mph - -  
9:00 AM 78.8 °F - 71.6 °F 78% 29.86 in 6.2 mi North 9.2 mph - N/A   Unknown
10:00 AM 80 °F - 74 °F 76% 29.83 in - North 8.1 mph - -  
10:00 AM 80.6 °F 85.4 °F 73.4 °F 79% 29.86 in 6.2 mi North 8.1 mph - N/A   Scattered Clouds
11:00 AM 80.6 °F 85.4 °F 73.4 °F 79% 29.86 in 6.2 mi North 9.2 mph - N/A   Unknown
11:58 AM 80.6 °F 85.4 °F 73.4 °F 79% 29.86 in 6.2 mi North 8.1 mph - N/A   Mostly Cloudy
12:00 PM 80 °F - 73 °F 74% 29.81 in - North 8.1 mph - -  
12:00 PM 80.6 °F 85.4 °F 73.4 °F 79% 29.86 in 6.2 mi North 8.1 mph - N/A   Mostly Cloudy
12:19 PM 80.6 °F 85.4 °F 73.4 °F 79% 29.83 in 6.2 mi NE 9.2 mph - N/A   Scattered Clouds
12:20 PM 80.6 °F 85.4 °F 73.4 °F 79% 29.83 in 6.2 mi NNE 9.2 mph - N/A   Mostly Cloudy
12:33 PM 80.6 °F 84.6 °F 71.6 °F 74% 29.83 in 6.2 mi North 9.2 mph - N/A   Scattered Clouds
1:00 PM 80 °F - 73 °F 75% 29.80 in - North 10.4 mph - -  
1:00 PM 80.6 °F 85.4 °F 73.4 °F 79% 29.83 in 6.2 mi North 10.4 mph - N/A   Scattered Clouds
2:00 PM 78.8 °F - 71.6 °F 78% 29.83 in 6.2 mi North 8.1 mph - N/A   Mostly Cloudy
3:00 PM 79 °F - 73 °F 78% 29.77 in - North 8.1 mph - -   Overcast
3:00 PM 78.8 °F - 73.4 °F 83% 29.80 in 6.2 mi North 8.1 mph - N/A   Overcast
4:00 PM 78 °F - 72 °F 77% 29.76 in - North 10.4 mph - -  
4:00 PM 77.0 °F - 71.6 °F 83% 29.80 in 6.2 mi North 10.4 mph - N/A   Scattered Clouds
4:30 PM 78.8 °F - 73.4 °F 83% 29.80 in 6.2 mi North 8.1 mph - N/A   Mostly Cloudy
5:00 PM 77.0 °F - 73.4 °F 89% 29.80 in 6.2 mi North 9.2 mph - N/A   Overcast
6:00 PM 77 °F - 73 °F 85% 29.79 in - NNE 9.2 mph - -   Overcast
6:00 PM 77.0 °F - 73.4 °F 89% 29.83 in 6.2 mi NNE 9.2 mph - N/A   Mostly Cloudy
6:19 PM 77.0 °F - 73.4 °F 89% 29.83 in 6.2 mi NE 10.4 mph - N/A   Mostly Cloudy
7:00 PM 76 °F - 74 °F 92% 29.81 in - East 9.2 mph - -  
7:00 PM 75.2 °F - 73.4 °F 94% 29.83 in - East 9.2 mph - N/A   Overcast
8:00 PM 77.0 °F - 71.6 °F 83% 29.86 in 6.2 mi East 9.2 mph - N/A   Mostly Cloudy
9:00 PM 76 °F - 72 °F 83% 29.84 in - NNE 6.9 mph - -   Overcast
9:00 PM 77.0 °F - 71.6 °F 83% 29.86 in 6.2 mi NNE 6.9 mph - N/A   Overcast
9:01 PM 77.0 °F - 71.6 °F 83% 29.86 in 6.2 mi NE 6.9 mph - N/A   Overcast
9:27 PM 77.0 °F - 71.6 °F 83% 29.89 in 6.2 mi NNE 8.1 mph - N/A   Overcast
10:00 PM 76 °F - 72 °F 83% 29.85 in - ENE 8.1 mph - -  
10:00 PM 77.0 °F - 71.6 °F 83% 29.89 in 6.2 mi ENE 8.1 mph - N/A   Overcast
11:00 PM 77.0 °F - 71.6 °F 83% 29.86 in 5.6 mi North 6.9 mph - N/A   Overcast